Location: Grossmotten
(48.5500°N, 15.3833°E)
Time: 00:01:37
(UTC+00:00)

Meteor 2-3 Rocket - Pass Details

Date: 15 November 2019
Orbit: 843 x 884 km, 81.2° (Epoch: 06 December)

Event Time Altitude Azimuth Distance (km) Brightness Sun altitude
Rises 05:18:34 0° 187° (S) 3,444 7.0 -8.0°
Reaches altitude 10° 05:20:59 10° 186° (S) 2,516 6.3 -7.6°
Maximum altitude 05:26:43 83° 100° (E) 892 4.0 -6.8°
Drops below altitude 10° 05:32:33 10° 13° (NNE) 2,554 6.1 -5.9°
Sets 05:35:01 0° 13° (NNE) 3,499 6.8 -5.5°
